Weather Roundup
Issued by NWS Springfield, MO

Home | Current Version | Previous Version | Text Only | Print | Product List | Glossary On
Versions: 1 2 3 4 5 6 7 8 9 10 11 12 13 14 15 16 17 18 19 20 21 22 23 24 25 26 27 28 29 30 31 32 33 34 35 36 37 38 39 40 41 42 43 44 45 46 47 48 49 50
000
NZUS99 KSGF 221407
HRRSGF

HOURLY WEATHER
NATIONAL WEATHER SERVICE SPRINGFIELD MO
900 AM CDT FRI MAY 22 2015

......SGF CWA......

CITY           SKY/WX    TMP DP  RH WIND       PRES   REMARKS
SPRINGFIELD    SUNNY     57  47  69 S10       30.28R
JOPLIN         CLOUDY    56  48  74 S7        30.30R
WEST PLAINS    SUNNY     56  48  74 S6        30.31R
ROLLA          SUNNY     58  48  69 VRB3      30.26R
OSAGE BEACH    MOSUNNY   55  45  67 S3        30.27R
BRANSON        MOSUNNY   55  48  76 SE7       30.29S

......SURROUNDING SGF CWA......

CITY           SKY/WX    TMP DP  RH WIND       PRES   REMARKS
CHANUTE        CLOUDY    54  50  86 SE3       30.29R
PARSONS        CLOUDY    55  51  86 CALM      30.29R
COFFEYVILLE    CLOUDY    55  51  86 SE5       30.27S
EMPORIA        CLOUDY    52  48  86 SE5       30.26F
GROVE OK       PTSUNNY   59  52  77 S3        30.29R
ROGERS AR      SUNNY     57  48  72 SE10      30.29R
SILOAM SPRINGS PTSUNNY   57  46  67 S7        30.30R
HARRISON AR    SUNNY     54  49  83 S9        30.29S
NEAR YELLVILLE SUNNY     54  50  87 E3        30.29F

......KANSAS AND MISSOURI......

CITY           SKY/WX    TMP DP  RH WIND       PRES   REMARKS
KANSAS CTY INT CLOUDY    56  51  84 SW6       30.27R
DOWNTOWN KC    CLOUDY    58  49  72 SW7       30.27R
COLUMBIA       SUNNY     63  49  60 NW6       30.25S
SEDALIA        MOSUNNY   63  50  62 CALM      30.27R
ST JOSEPH      CLOUDY    56  50  80 CALM      30.26R
ST LOUIS       MOSUNNY   63  47  55 W9        30.25R
SPIRIT OF STL  SUNNY     61  49  64 W9        30.24R
KIRKSVILLE     SUNNY     61  47  59 NW7       30.23R
WICHITA        RAIN      52  48  86 E9        30.22F FOG
TOPEKA         CLOUDY    54  49  83 CALM      30.28R
OLATHE         CLOUDY    56  49  77 CALM      30.28R

......TENNESSEE......

CITY           SKY/WX    TMP DP  RH WIND       PRES   REMARKS
MEMPHIS        MOSUNNY   61  46  57 E5        30.31R
NASHVILLE      MOSUNNY   61  46  57 VRB6      30.32R

......ARKANSAS.......

CITY           SKY/WX    TMP DP  RH WIND       PRES   REMARKS
FAYETTEVILLE   MOSUNNY   56  49  77 MISG      30.28R
FT SMITH       PTSUNNY   58  50  75 E8        30.28R
LITTLE ROCK    MOSUNNY   59  48  67 E10       30.30S

......OKLAHOMA.......

CITY           SKY/WX    TMP DP  RH WIND       PRES   REMARKS
TULSA          CLOUDY    59  52  77 SE7       30.27R
PONCA CITY     HVY RAIN  53  51  93 E6        30.23F FOG
MCALESTER      PTSUNNY   59  52  77 SE6       30.25R
OKLAHOMA CITY  LGT RAIN  54  54 100 E9        30.19F FOG

......IOWA............

CITY           SKY/WX    TMP DP  RH WIND       PRES   REMARKS
DES MOINES     CLOUDY    62  45  53 NW5       30.21R
QUAD CITIES    SUNNY     62  42  47 CALM      30.18R

......ILLINOIS........

CITY           SKY/WX    TMP DP  RH WIND       PRES   REMARKS
QUINCY         SUNNY     62  45  53 NW8       30.21R
CHICAGO        SUNNY     57  37  47 NE9       30.19R




USA.gov is the U.S. government's official web portal to all federal, state and local government web resources and services.